Regional Weather Roundup
Issued by NWS

Home | Current Version | Previous Version | Graphics & Text | Print | Product List | Glossary On
Versions: 1 2 3 4 5 6 7 8 9 10 11 12 13 14 15 16 17 18 19 20 21 22 23 24 25 26 27 28 29 30 31 32 33 34 35 36 37 38 39 40 41 42 43 44 45 46 47 48 49 50
000
ASUS45 KABQ 291910
RWRNM
WEATHER ROUNDUP FOR NEW MEXICO
NATIONAL WEATHER SERVICE ALBUQUERQUE NM
100 PM MDT SUN MAR 29 2015

NOTE: "FAIR" MEANS FEW OR NO CLOUDS BELOW 12,000 FEET AGL WITH NO
       SIGNIFICANT WEATHER OR OBSTRUCTIONS TO VISION.

      THIS PRODUCT IS RELEASED AS TWO VERSIONS.  ONE VERSION NEAR
      THE TOP OF THE HOUR CONTAINING PRELIMINARY DATA FROM ALBUQUERQUE
      AND OTHER STATIONS.  A FINAL VERSION WITH ADDITIONAL DATA IS
      ISSUED ABOUT 10 MINUTES AFTER THE HOUR.

NMZ501-503-504-510>518-292000-
NORTHWEST PLATEAU/NORTHCENTRAL MOUNTAINS

CITY           SKY/WX    TMP DP  RH WIND       PRES   REMARKS
FARMINGTON     SUNNY     71  19  14 SW8       30.22F
LOS ALAMOS     MOSUNNY   64  20  19 SW6       30.32F
SANTA FE       MOSUNNY   70  14  11 VRB5      30.27F
TAOS           SUNNY     66  19  16 NW6       30.30F
ANGEL FIRE     FAIR      62  20  19 W18       30.35S

$$
NMZ402-403-502-505>509-292000-
WESTCENTRAL MOUNTAINS/SOUTHWEST MOUNTAINS

CITY           SKY/WX    TMP DP  RH WIND       PRES   REMARKS
GALLUP         SUNNY     71  13  10 MISG      30.29F
GRANTS         MOSUNNY   70  15  12 SW5       30.29F
SILVER CITY    MOSUNNY   75  14   9 NW3       30.27F

$$
NMZ407-409-411-412-292000-
SOUTHERN DESERTS

CITY           SKY/WX    TMP DP  RH WIND       PRES   REMARKS
LORDSBURG      FAIR      79  12   8 NW6       30.21F
DEMING         MOSUNNY   80  11   7 N6        30.20F
LAS CRUCES     SUNNY     82   8   6 W7        30.21F
ALAMOGORDO     SUNNY     82  14   7 N7G18     30.18F
T OR C         SUNNY     80   9   6 VRB3G17   30.19F

$$
NMZ519>523-292000-
CENTRAL VALLEYS/CENTRAL HIGHLANDS

CITY           SKY/WX    TMP DP  RH WIND       PRES   REMARKS
ALBUQUERQUE    PTSUNNY   73  21  14 SW8       30.24F
DOUBLE EAGLE   PTSUNNY   72  19  14 S6        30.26F
MORIARTY ARPT  FAIR      74  14  10 W8        30.28F
CLINES CORNERS MOSUNNY   70  12  10 VRB6      30.30F
BELEN          FAIR      77  19  11 E10       30.22F
SOCORRO        FAIR      82  18   9 N10G16    30.19F

$$
NMZ524>526-539-540-292000-
SOUTHCENTRAL MOUNTAINS

CITY           SKY/WX    TMP DP  RH WIND       PRES   REMARKS
RUIDOSO        MOSUNNY   72  16  12 N13G21    30.34F

$$
NMZ527>531-292000-
NORTHEAST HIGHLANDS/NORTHEAST PLAINS

CITY           SKY/WX    TMP DP  RH WIND       PRES   REMARKS
LAS VEGAS      MOSUNNY   68  21  16 S15       30.30F
RATON          SUNNY     64  23  21 NE13G20   30.28F
CLAYTON        SUNNY     65  22  19 N23G32    30.27S

$$
NMZ532>537-292000-
EASTCENTRAL PLAINS

CITY           SKY/WX    TMP DP  RH WIND       PRES   REMARKS
TUCUMCARI      SUNNY     74  33  22 E21G31    30.21F
CANNON AFB     NOT AVBL
CLOVIS AIRPORT SUNNY     75  34  22 NE26      30.20S

$$
NMZ028-029-538-292000-
SOUTHEAST PLAINS

CITY           SKY/WX    TMP DP  RH WIND       PRES   REMARKS
ROSWELL        SUNNY     86  23  10 NE17      30.13S
ARTESIA        SUNNY     84  27  12 N17G23    30.14R
CARLSBAD       MOSUNNY   88  24  10 N12       30.10F
HOBBS          SUNNY     82  28  14 N18G26    30.13F


$$



USA.gov is the U.S. government's official web portal to all federal, state and local government web resources and services.